logo
Rechercher aéroport 
image banner adimage banner adimage banner ad
image banner ad

KNSI - San Nicolas Island Nolf

Situé à San Nicolas Island, United States

ICAO - NSI, IATA -

Données fournies par Airmate  

Information générale

Coordonnées: N33°14'23" W119°27'30"
Élévation : 506 feet MSL.
Variation magnétique : 12° East
Voir autres Aéroports à California

Données opérationnelles

Special qualification required
Heure actuelle UTC:
Heure actuelle locale:
Météo
METAR: KNSI 011653Z AUTO 24008KT OVC022 17/13 A2990 RMK AO2 SLP119 T01720128 PWINO $
Voir NOTAMs / SUP AIP / TFR affectant cet aéroport [VIEW]
Fréquences de communication: [VIEW]

Pistes:

Identifiant RWYQFULongueur (ft)Largeur (ft)SurfaceLDA (ft)
12133°10002200OTHER9010
30313°10002200OTHER

Coordonnées de l'aéroport

Adresse: San Nicolas Island United States

Vue satellite de KNSI